C/2016 R2 ( PanSTARRS )

Japanese version
Home page
Updated on July 9, 2019

---------------------------------------------------------------------

* Profile

Discovery Date September 7, 2016
Magnitude 19.1 mag
Discoverer Pan-STARRS 1 telescope (Haleakala)

* Pictures

* Orbital Elements

Epoch 2018 May 2.0 TT = JDT 2458240.5
T 2018 May  9.58374 TT                                  MPCW
q   2.6023716            (2000.0)            P               Q
z  +0.0013991      Peri.   33.19219     -0.14726367     -0.52443188
 +/-0.0000001      Node    80.56876     +0.61562577     -0.71221378
e   0.9963590      Incl.   58.22381     +0.77415652     +0.46660770
From 3534 observations 2016 Aug. 30-2019 May 13, mean residual 0".4.

* Finding Charts

* Magnitudes Graph

        m1 = 3.5 + 5 log d + 13.0 log r(t + 40)

---------------------------------------------------------------------

The orbital elements are published on M.P.E.C. 2019-J142.
The charts are made with StellaNavigator Ver.10 (AstroArts).
The magnitudes graphs are made with Comet for Windows.

---------------------------------------------------------------------

Copyright(C) Seiichi Yoshida (comet@aerith.net). All rights reserved.